Вернуться в каталог

OPS 0203

DMSP 5A F2

АктивенПогодаSSO
NORAD 4512·PAYLOAD·🇺🇸 United States

Запущен Sep 3, 1970 с Vandenberg Space Force Base

Loading…

Ближайшие Пролёты (ближайшие 24 часа)

TLE

СвежийSource: Space-Track

Эпоха: Sep 14, 2026, 08:03 UTC

1 04512U 70070A   26257.33602690  .00000140  00000-0  62277-4 0  9990
2 04512  98.8877 208.6683 0062559 182.6081 177.4787 14.36574792924427

Отслеживайте OPS 0203 в реальном времени с AllMySat

Download on the App Store